Snowfall_Accumulation
0.0 0.0 0.0 0.0 0.0 0.0 0.0 0.0 0.0 0.0 0.0 0.0 0.0 0.0 0.0 0.0 0.0 0.0 0.0 0.0 0.0 0.0 0.0 0.0 0.0 0.0 0.0 0.0 0.0 0.0 0.0 0.0 0.0 0.0 0.0 0.0 0.0 0.0 0.0 0.0 0.0 0.0 0.0
0.0 0.0 0.0 0.0 0.0 0.0 0.0 0.0 0.0 0.0 0.0 0.0 0.0 0.0 0.0 0.0 0.0 0.0 0.0 0.0 0.0 0.0 0.0 0.0 0.0 0.0 0.0 0.0 0.0 0.0 0.0 0.0 0.0 0.0 0.0 0.0 0.0 0.0 0.0 0.0 0.0 0.0 0.0
0.0 0.0 0.0 0.0 0.0 0.0 0.0 0.0 0.0 0.0 0.0 0.0 0.0 0.0 0.0 0.0 0.0 0.0 0.0 0.0 0.0 0.0 0.0 0.0 0.0 0.0 0.0 0.0 0.0 0.0 0.0 0.0 0.0 0.0 0.0 0.0 0.0 0.0 0.0 0.0 0.0 0.0 0.0
0.0 0.0 0.0 0.0 0.0 0.0 0.0 0.0 0.0 0.0 0.0 0.0 0.0 0.0 0.0 0.0 0.0 0.0 0.0 0.0 0.0 0.0 0.0 0.0 0.0 0.0 0.0 0.0 0.0 0.0 0.0 0.0 0.0 0.0 0.0 0.0 0.0 0.0 0.0 0.0 0.0 0.0 0.0
0.0 0.0 0.0 0.0 0.0 0.0 0.0 0.0 0.0 0.0 0.0 0.0 0.0 0.0 0.0 0.0 0.0 0.0 0.0 0.0 0.0 0.0 0.0 0.0 0.0 0.0 0.0 0.0 0.0 0.0 0.0 0.0 0.0 0.0 0.0 0.0 0.0 0.0 0.0 0.0 0.0 0.0 0.0
0.2 0.1 0.0 0.0 0.0 0.0 0.0 0.0 0.0 0.0 0.0 0.0 0.0 0.0 0.0 0.0 0.0 0.0 0.0 0.0 0.0 0.0 0.0 0.0 0.0 0.0 0.0 0.0 0.0 0.0 0.0 0.0 0.0 0.0 0.0 0.0 0.0 0.0 0.0 0.0 0.0 0.0 0.0
0.2 0.2 0.1 0.1 0.0 0.0 0.0 0.0 0.0 0.0 0.0 0.0 0.0 0.0 0.0 0.0 0.0 0.0 0.0 0.0 0.0 0.0 0.0 0.0 0.0 0.0 0.0 0.0 0.0 0.0 0.0 0.0 0.0 0.0 0.0 0.0 0.0 0.0 0.0 0.0 0.0 0.0 0.0
0.6 0.6 0.5 0.3 0.1 0.0 0.0 0.0 0.0 0.0 0.0 0.0 0.0 0.0 0.0 0.0 0.0 0.0 0.0 0.0 0.0 0.0 0.0 0.0 0.0 0.0 0.0 0.0 0.0 0.0 0.0 0.0 0.0 0.0 0.0 0.0 0.0 0.0 0.0 0.0 0.0 0.0 0.0
1.1 1.2 0.7 0.6 0.4 0.2 0.1 0.1 0.0 0.0 0.0 0.0 0.0 0.0 0.0 0.0 0.0 0.0 0.0 0.0 0.0 0.0 0.0 0.0 0.0 0.0 0.0 0.0 0.0 0.0 0.0 0.0 0.0 0.0 0.0 0.0 0.0 0.0 0.0 0.0 0.0 0.0 0.0
1.6 1.7 1.4 1.2 0.7 0.5 0.4 0.2 0.1 0.1 0.0 0.0 0.0 0.0 0.0 0.0 0.0 0.0 0.0 0.0 0.0 0.0 0.0 0.0 0.0 0.0 0.0 0.0 0.0 0.0 0.0 0.0 0.0 0.0 0.0 0.0 0.0 0.0 0.0 0.0 0.0 0.0 0.0
2.3 2.5 2.6 1.8 2.0 1.0 0.8 0.6 0.4 0.2 0.1 0.0 0.0 0.0 0.0 0.0 0.0 0.0 0.0 0.0 0.0 0.0 0.0 0.0 0.0 0.0 0.0 0.0 0.0 0.0 0.0 0.0 0.0 0.0 0.0 0.0 0.0 0.0 0.0 0.0 0.0 0.0 0.0
3.4 3.0 2.8 3.5 2.5 2.5 1.3 1.2 0.9 0.6 0.3 0.2 0.1 0.0 0.0 0.0 0.0 0.0 0.0 0.0 0.0 0.0 0.0 0.0 0.0 0.0 0.0 0.0 0.0 0.0 0.0 0.0 0.0 0.0 0.0 0.0 0.0 0.0 0.0 0.0 0.0 0.0 0.0
2.4 2.7 1.9 2.7 3.8 3.5 3.5 1.8 1.5 1.5 0.8 0.6 0.3 0.1 0.0 0.0 0.0 0.0 0.0 0.0 0.0 0.0 0.0 0.0 0.0 0.0 0.0 0.0 0.0 0.0 0.0 0.0 0.0 0.0 0.0 0.0 0.0 0.0 0.0 0.0 0.0 0.0 0.0
3.6 3.1 2.5 3.1 3.8 4.5 5.2 4.3 2.8 1.6 1.8 1.2 0.7 0.5 0.2 0.0 0.0 0.0 0.0 0.0 0.0 0.0 0.0 0.0 0.0 0.0 0.0 0.0 0.0 0.0 0.0 0.0 0.0 0.0 0.0 0.0 0.0 0.0 0.0 0.0 0.0 0.0 0.0
2.5 3.2 4.2 4.1 4.1 4.5 4.3 5.0 4.3 3.8 2.2 2.3 1.4 1.0 0.5 0.1 0.1 0.0 0.0 0.0 0.0 0.0 0.0 0.0 0.0 0.0 0.0 0.0 0.0 0.0 0.0 0.0 0.0 0.0 0.0 0.0 nan nan nan 0.0 0.0 0.0 0.0
3.3 3.5 3.4 3.3 3.6 5.4 6.1 5.8 6.4 5.1 5.1 2.8 3.1 1.9 1.2 0.6 0.2 0.1 0.1 0.0 0.0 0.0 0.0 0.0 0.0 0.0 0.0 nan nan 0.0 0.0 0.0 0.0 0.0 0.0 0.0 0.0 0.0 nan nan nan nan 0.0
4.8 4.2 4.8 5.2 5.2 5.9 7.1 7.1 7.4 7.1 6.1 6.7 3.5 3.7 2.4 1.7 1.0 0.3 0.2 0.1 0.1 0.1 0.1 0.0 0.0 0.0 0.0 nan nan nan 0.0 0.0 0.0 0.0 0.0 0.0 0.0 nan 0.0 nan nan nan nan
6.0 5.1 4.4 4.1 4.6 4.8 4.4 5.1 5.3 6.9 7.3 7.3 6.7 4.6 4.8 3.0 1.9 1.4 0.6 0.3 0.2 0.1 0.1 0.1 0.0 0.0 0.0 nan nan nan 0.0 0.0 0.0 0.0 0.0 0.0 0.0 0.0 0.0 0.0 0.0 0.0 0.0
6.8 8.4 8.3 7.1 5.0 5.9 5.1 5.1 4.8 5.3 5.7 6.5 7.6 7.5 6.5 6.6 4.2 3.4 2.6 1.0 0.8 0.2 0.0 0.0 0.1 0.0 0.0 nan nan 0.0 0.0 0.0 0.0 0.0 0.0 0.0 0.0 nan nan 0.0 0.0 0.0 0.0
7.0 6.5 5.4 6.6 3.4 4.4 4.9 5.2 5.5 5.0 5.4 6.5 7.9 8.2 8.7 9.0 9.3 5.5 5.2 3.1 1.4 1.1 0.3 0.2 0.0 nan 0.0 nan nan nan 0.0 0.0 0.0 0.0 0.0 nan 0.0 nan nan 0.0 0.0 0.0 0.0
4.8 4.7 3.9 5.7 6.7 5.1 5.2 5.6 5.9 7.0 7.6 6.9 6.3 6.2 6.8 8.6 10.6 10.7 6.7 6.3 3.8 1.6 1.6 0.9 0.4 0.1 0.0 0.1 nan nan 0.0 0.0 0.0 0.0 0.0 0.0 nan nan nan nan 0.0 0.0 0.0
1.9 1.5 2.5 2.8 2.8 2.7 3.3 4.6 4.2 6.2 5.6 6.3 6.3 6.3 6.7 7.2 6.9 9.4 9.9 7.8 8.0 6.1 3.5 3.7 2.2 1.3 0.2 nan nan nan nan nan 0.0 0.0 0.0 0.0 nan nan nan nan nan nan nan
1.2 1.3 2.3 2.3 1.4 1.8 2.7 2.5 4.0 4.0 4.0 3.6 5.1 6.2 6.3 6.4 6.9 7.2 8.3 9.8 8.9 10.0 9.7 7.3 5.9 4.4 1.4 0.4 nan nan nan nan 0.0 0.0 0.0 nan nan nan nan nan nan nan 0.1
0.1 0.1 0.4 0.9 1.2 1.1 1.3 2.1 2.6 2.8 3.2 3.4 3.8 4.2 5.2 5.9 5.9 5.9 6.2 6.9 7.8 10.0 10.9 9.6 9.5 7.1 4.3 1.5 0.5 0.1 0.0 nan 0.0 nan 0.0 nan 0.0 nan nan 0.0 0.0 0.0 0.0
0.0 0.0 0.1 0.1 0.5 0.5 0.8 0.9 0.9 1.1 2.1 2.7 3.2 3.7 4.0 5.8 5.9 5.9 12.3 10.9 8.9 13.1 13.8 12.4 10.2 10.2 8.9 6.3 1.5 0.7 0.1 0.0 0.0 nan 0.0 0.1 0.2 0.2 0.2 0.2 0.0 0.1 0.1
0.1 0.1 0.1 0.1 0.2 0.5 0.7 0.7 0.7 1.1 1.7 2.1 3.4 4.0 4.3 4.7 5.0 5.3 4.7 nan nan nan nan nan 9.7 8.6 nan nan nan nan nan nan nan 0.3 0.4 0.5 0.3 0.3 0.3 0.4 0.5 0.5 0.6
Water_Equivalent
0.00 0.00 0.00 0.00 0.00 0.00 0.00 0.00 0.00 0.00 0.00 0.00 0.00 0.00 0.00 0.00 0.00 0.00 0.00 0.00 0.00 0.00 0.00 0.00 0.00 0.00 0.00 0.00 0.00 0.00 0.00 0.00 0.00 0.00 0.00 0.00 0.00 0.00 0.00 0.00 0.00 0.00 0.00
0.00 0.00 0.00 0.00 0.00 0.00 0.00 0.00 0.00 0.00 0.00 0.00 0.00 0.00 0.00 0.00 0.00 0.00 0.00 0.00 0.00 0.00 0.00 0.00 0.00 0.00 0.00 0.00 0.00 0.00 0.00 0.00 0.00 0.00 0.00 0.00 0.00 0.00 0.00 0.00 0.00 0.00 0.00
0.00 0.00 0.00 0.00 0.00 0.00 0.00 0.00 0.00 0.00 0.00 0.00 0.00 0.00 0.00 0.00 0.00 0.00 0.00 0.00 0.00 0.00 0.00 0.00 0.00 0.00 0.00 0.00 0.00 0.00 0.00 0.00 0.00 0.00 0.00 0.00 0.00 0.00 0.00 0.00 0.00 0.00 0.00
0.00 0.00 0.00 0.00 0.00 0.00 0.00 0.00 0.00 0.00 0.00 0.00 0.00 0.00 0.00 0.00 0.00 0.00 0.00 0.00 0.00 0.00 0.00 0.00 0.00 0.00 0.00 0.00 0.00 0.00 0.00 0.00 0.00 0.00 0.00 0.00 0.00 0.00 0.00 0.00 0.00 0.00 0.00
0.00 0.00 0.00 0.00 0.00 0.00 0.00 0.00 0.00 0.00 0.00 0.00 0.00 0.00 0.00 0.00 0.00 0.00 0.00 0.00 0.00 0.00 0.00 0.00 0.00 0.00 0.00 0.00 0.00 0.00 0.00 0.00 0.00 0.00 0.00 0.00 0.00 0.00 0.00 0.00 0.00 0.00 0.00
0.02 0.01 0.00 0.00 0.00 0.00 0.00 0.00 0.00 0.00 0.00 0.00 0.00 0.00 0.00 0.00 0.00 0.00 0.00 0.00 0.00 0.00 0.00 0.00 0.00 0.00 0.00 0.00 0.00 0.00 0.00 0.00 0.00 0.00 0.00 0.00 0.00 0.00 0.00 0.00 0.00 0.00 0.00
0.03 0.02 0.01 0.01 0.00 0.00 0.00 0.00 0.00 0.00 0.00 0.00 0.00 0.00 0.00 0.00 0.00 0.00 0.00 0.00 0.00 0.00 0.00 0.00 0.00 0.00 0.00 0.00 0.00 0.00 0.00 0.00 0.00 0.00 0.00 0.00 0.00 0.00 0.00 0.00 0.00 0.00 0.00
0.07 0.07 0.06 0.04 0.01 0.01 0.00 0.00 0.00 0.00 0.00 0.00 0.00 0.00 0.00 0.00 0.00 0.00 0.00 0.00 0.00 0.00 0.00 0.00 0.00 0.00 0.00 0.00 0.00 0.00 0.00 0.00 0.00 0.00 0.00 0.00 0.00 0.00 0.00 0.00 0.00 0.00 0.00
0.12 0.14 0.08 0.07 0.05 0.03 0.01 0.01 0.00 0.00 0.00 0.00 0.00 0.00 0.00 0.00 0.00 0.00 0.00 0.00 0.00 0.00 0.00 0.00 0.00 0.00 0.00 0.00 0.00 0.00 0.00 0.00 0.00 0.00 0.00 0.00 0.00 0.00 0.00 0.00 0.00 0.00 0.00
0.17 0.20 0.16 0.15 0.09 0.06 0.06 0.03 0.01 0.01 0.00 0.00 0.00 0.00 0.00 0.00 0.00 0.00 0.00 0.00 0.00 0.00 0.00 0.00 0.00 0.00 0.00 0.00 0.00 0.00 0.00 0.00 0.00 0.00 0.00 0.00 0.00 0.00 0.00 0.00 0.00 0.00 0.00
0.25 0.27 0.30 0.21 0.24 0.12 0.09 0.08 0.05 0.03 0.01 0.00 0.00 0.00 0.00 0.00 0.00 0.00 0.00 0.00 0.00 0.00 0.00 0.00 0.00 0.00 0.00 0.00 0.00 0.00 0.00 0.00 0.00 0.00 0.00 0.00 0.00 0.00 0.00 0.00 0.00 0.00 0.00
0.36 0.33 0.32 0.41 0.30 0.30 0.17 0.14 0.11 0.08 0.04 0.03 0.01 0.01 0.00 0.00 0.00 0.00 0.00 0.00 0.00 0.00 0.00 0.00 0.00 0.00 0.00 0.00 0.00 0.00 0.00 0.00 0.00 0.00 0.00 0.00 0.00 0.00 0.00 0.00 0.00 0.00 0.00
0.24 0.28 0.21 0.31 0.44 0.42 0.42 0.22 0.18 0.18 0.11 0.08 0.05 0.02 0.01 0.00 0.00 0.00 0.00 0.00 0.00 0.00 0.00 0.00 0.00 0.00 0.00 0.00 0.00 0.00 0.00 0.00 0.00 0.00 0.00 0.00 0.00 0.00 0.00 0.00 0.00 0.00 0.00
0.34 0.31 0.26 0.33 0.43 0.53 0.64 0.51 0.35 0.20 0.24 0.17 0.10 0.07 0.03 0.01 0.01 0.00 0.00 0.00 0.00 0.00 0.00 0.00 0.00 0.00 0.00 0.00 0.00 0.00 0.00 0.00 0.00 0.00 0.00 0.00 0.00 0.00 0.00 0.00 0.00 0.00 0.00
0.22 0.29 0.40 0.40 0.44 0.49 0.50 0.65 0.53 0.51 0.28 0.31 0.20 0.16 0.09 0.03 0.01 0.01 0.00 0.00 0.00 0.00 0.00 0.00 0.00 0.00 0.00 0.00 0.00 0.00 0.00 0.00 0.00 0.00 0.00 0.00 nan nan nan 0.00 0.00 0.00 0.00
0.28 0.31 0.32 0.32 0.36 0.56 0.65 0.67 0.84 0.64 0.73 0.38 0.41 0.29 0.20 0.12 0.04 0.01 0.01 0.01 0.01 0.00 0.00 0.00 0.00 0.00 0.00 nan nan 0.00 0.00 0.00 0.00 0.00 0.00 0.00 0.00 0.00 nan nan nan nan 0.00
0.40 0.36 0.43 0.47 0.50 0.58 0.74 0.75 0.83 0.90 0.76 0.93 0.52 0.52 0.35 0.27 0.20 0.04 0.03 0.01 0.01 0.01 0.01 0.00 0.00 0.00 0.00 nan nan nan 0.00 0.00 0.00 0.00 0.00 0.00 0.00 nan 0.00 nan nan nan nan
0.55 0.48 0.42 0.39 0.45 0.49 0.45 0.56 0.60 0.79 0.86 0.89 0.93 0.70 0.71 0.45 0.32 0.26 0.10 0.05 0.02 0.02 0.01 0.01 0.00 0.00 0.00 nan nan nan 0.00 0.00 0.00 0.00 0.00 0.00 0.00 0.00 0.00 0.00 0.00 0.00 0.00
0.64 0.80 0.83 0.72 0.51 0.59 0.52 0.53 0.50 0.56 0.61 0.73 0.93 1.01 0.98 0.99 0.65 0.59 0.51 0.16 0.11 0.03 0.01 0.00 0.01 0.01 0.00 nan nan 0.00 0.00 0.00 0.00 0.00 0.00 0.00 0.00 nan nan 0.00 0.00 0.00 0.00
0.69 0.62 0.54 0.71 0.38 0.47 0.53 0.53 0.54 0.48 0.53 0.68 0.91 1.02 1.14 1.31 1.39 0.90 0.91 0.60 0.23 0.18 0.05 0.02 0.01 nan 0.00 nan nan nan 0.00 0.00 0.00 0.00 0.00 nan 0.00 nan nan 0.00 0.00 0.00 0.00
0.44 0.47 0.39 0.53 0.68 0.56 0.56 0.56 0.58 0.67 0.78 0.75 0.74 0.75 0.85 1.08 1.47 1.68 1.14 1.36 0.82 0.27 0.30 0.16 0.08 0.02 0.01 0.02 nan nan 0.00 0.00 0.00 0.00 0.00 0.00 nan nan nan nan 0.00 0.00 0.00
0.16 0.13 0.21 0.25 0.27 0.26 0.33 0.42 0.38 0.60 0.58 0.69 0.72 0.74 0.83 0.88 0.88 1.27 1.57 1.31 1.66 1.43 0.87 0.75 0.47 0.27 0.04 nan nan nan nan nan 0.00 0.00 0.00 0.00 nan nan nan nan nan nan nan
0.10 0.11 0.19 0.19 0.13 0.16 0.24 0.21 0.36 0.38 0.38 0.36 0.56 0.72 0.78 0.78 0.84 0.86 1.09 1.43 1.47 1.76 1.79 1.58 1.46 1.15 0.30 0.09 nan nan nan nan 0.00 0.00 0.00 nan nan nan nan nan nan nan 0.05
0.01 0.01 0.03 0.07 0.09 0.10 0.12 0.19 0.24 0.25 0.30 0.35 0.42 0.50 0.63 0.72 0.75 0.79 0.85 0.95 1.12 1.45 1.69 1.54 1.64 1.53 1.19 0.45 0.10 0.02 0.01 nan 0.00 nan 0.00 nan 0.00 nan nan 0.00 0.00 0.00 0.00
0.00 0.00 0.01 0.01 0.04 0.04 0.07 0.09 0.09 0.11 0.25 0.35 0.44 0.50 0.54 0.75 0.76 0.81 1.52 1.39 1.23 1.80 1.83 1.77 1.49 1.60 1.52 1.43 0.42 0.17 0.02 0.00 0.00 nan 0.00 0.04 0.08 0.07 0.06 0.06 0.01 0.02 0.04
0.01 0.01 0.01 0.01 0.03 0.07 0.11 0.12 0.13 0.20 0.29 0.33 0.50 0.58 0.58 0.65 0.63 0.64 0.65 nan nan nan nan nan 1.51 1.35 nan nan nan nan nan nan nan 0.11 0.13 0.15 0.09 0.11 0.12 0.11 0.13 0.15 0.19
SL_Ratio
nan nan nan nan nan nan nan nan nan nan nan nan nan nan nan nan nan nan nan nan nan nan nan nan nan nan nan nan nan nan nan nan nan nan nan nan nan nan nan nan nan nan nan
nan nan nan nan nan nan nan nan nan nan nan nan nan nan nan nan nan nan nan nan nan nan nan nan nan nan nan nan nan nan nan nan nan nan nan nan nan nan nan nan nan nan nan
nan nan nan nan nan nan nan nan nan nan nan nan nan nan nan nan nan nan nan nan nan nan nan nan nan nan nan nan nan nan nan nan nan nan nan nan nan nan nan nan nan nan nan
nan nan nan nan nan nan nan nan nan nan nan nan nan nan nan nan nan nan nan nan nan nan nan nan nan nan nan nan nan nan nan nan nan nan nan nan nan nan nan nan nan nan nan
7.5 nan nan nan nan nan nan nan nan nan nan nan nan nan nan nan nan nan nan nan nan nan nan nan nan nan nan nan nan nan nan nan nan nan nan nan nan nan nan nan nan nan nan
7.7 7.4 nan nan nan nan nan nan nan nan nan nan nan nan nan nan nan nan nan nan nan nan nan nan nan nan nan nan nan nan nan nan nan nan nan nan nan nan nan nan nan nan nan
7.9 8.1 7.9 8.1 5.0 nan nan nan nan nan nan nan nan nan nan nan nan nan nan nan nan nan nan nan nan nan nan nan nan nan nan nan nan nan nan nan nan nan nan nan nan nan nan
8.4 8.3 8.3 8.0 8.0 7.8 10.0 nan nan nan nan nan nan nan nan nan nan nan nan 5.0 nan nan nan nan nan nan nan nan nan nan nan nan nan nan nan nan nan nan nan nan nan nan nan
8.9 8.7 8.2 8.2 8.1 8.0 7.7 7.1 6.0 5.0 nan nan nan nan nan nan 7.5 nan nan nan nan nan nan nan nan nan nan nan nan nan nan nan nan nan nan nan nan nan nan nan nan nan nan
9.2 8.8 8.5 8.4 8.2 8.0 7.9 7.9 6.4 5.0 5.0 nan nan nan 7.5 7.5 5.0 7.5 5.0 nan nan nan nan nan nan nan nan nan nan nan nan nan nan nan nan nan nan nan nan nan nan nan nan
9.5 9.1 8.7 8.4 8.3 8.1 8.2 8.1 7.9 6.9 4.3 3.8 5.0 8.3 8.3 10.0 7.5 6.7 5.0 nan nan nan nan nan nan nan nan nan nan nan nan nan nan nan nan nan nan nan nan nan nan nan nan
9.5 9.2 8.7 8.5 8.3 8.3 8.0 8.5 8.2 8.1 7.2 5.8 6.6 6.4 8.3 10.0 7.5 10.0 7.5 5.0 5.0 nan nan nan nan nan nan nan nan nan nan nan nan nan nan nan nan nan nan nan nan nan nan
9.9 9.5 9.0 8.9 8.6 8.5 8.3 8.2 8.2 8.2 7.5 7.4 6.3 6.2 6.3 10.0 10.0 10.0 10.0 10.0 7.5 10.0 nan nan nan nan nan nan nan nan nan nan nan nan nan nan nan nan nan nan nan nan nan
10.5 10.2 9.9 9.4 8.9 8.4 8.2 8.5 8.0 7.9 7.5 7.2 6.9 6.4 5.1 6.3 7.2 10.0 10.0 6.7 15.0 10.0 5.0 nan nan nan nan nan nan nan nan nan nan nan nan nan nan nan nan nan nan nan nan
11.3 10.9 10.6 10.2 9.5 9.2 8.6 7.7 8.1 7.6 7.7 7.5 7.1 6.5 5.5 5.5 5.8 7.2 10.0 8.3 6.7 7.5 7.5 5.0 nan nan nan nan nan nan nan nan nan nan nan nan nan nan nan nan nan nan nan
11.8 11.3 10.7 10.3 10.0 9.7 9.3 8.7 7.6 8.1 6.9 7.4 7.4 6.7 6.2 5.1 5.7 6.7 7.7 7.5 8.8 7.9 7.5 6.7 nan nan nan nan nan nan nan nan nan nan nan nan nan nan nan nan nan nan nan
11.8 11.8 11.4 11.0 10.5 10.2 9.6 9.5 8.9 7.9 8.0 7.2 6.8 7.1 6.8 6.3 5.2 6.3 6.4 7.8 7.7 8.3 8.1 7.0 nan 10.0 nan nan nan nan nan nan nan nan nan nan nan nan nan nan nan nan nan
10.8 10.6 10.5 10.5 10.2 9.9 9.9 9.2 8.8 8.8 8.5 8.2 7.2 6.5 6.8 6.7 6.0 5.3 6.3 6.6 7.6 7.5 7.9 8.0 8.0 7.5 nan nan nan nan nan nan nan nan nan nan nan nan nan nan nan nan nan
10.6 10.5 9.9 9.9 9.7 10.0 9.8 9.7 9.6 9.4 9.3 8.9 8.2 7.4 6.6 6.7 6.5 5.8 5.1 6.1 7.1 7.4 6.4 7.0 6.9 6.8 nan nan nan nan nan nan nan nan nan nan nan nan nan nan nan nan nan
10.2 10.6 10.0 9.4 8.9 9.3 9.4 9.8 10.2 10.4 10.2 9.5 8.7 8.1 7.6 6.9 6.7 6.1 5.7 5.2 6.1 6.2 6.6 6.7 6.3 nan 6.4 nan nan nan nan nan nan nan nan nan nan nan nan nan nan nan nan
11.0 10.1 10.0 10.6 9.9 9.2 9.3 10.0 10.1 10.5 9.7 9.2 8.5 8.3 8.0 7.9 7.2 6.4 5.9 4.7 4.6 5.7 5.2 5.5 5.4 6.2 6.4 6.3 nan nan nan 5.0 nan nan nan nan nan nan nan nan nan nan nan
12.1 11.6 11.7 11.2 10.6 10.4 10.0 10.7 11.2 10.2 9.7 9.1 8.7 8.5 8.2 8.2 7.8 7.4 6.3 6.0 4.8 4.2 4.1 4.8 4.7 4.8 5.7 nan nan nan nan nan nan nan 2.5 nan nan nan nan nan nan nan nan
12.5 12.0 12.4 12.2 11.2 11.2 11.0 12.2 11.2 10.7 10.3 9.8 9.1 8.7 8.1 8.1 8.2 8.3 7.6 6.8 6.1 5.7 5.4 4.6 4.0 3.8 4.7 5.1 nan nan nan nan nan nan nan nan nan nan nan nan nan nan 2.5
13.5 11.8 12.4 12.7 12.7 11.7 11.0 11.0 10.8 10.8 10.6 9.5 9.0 8.4 8.2 8.2 7.9 7.5 7.3 7.3 6.9 6.9 6.4 6.2 5.8 4.7 3.6 3.4 4.5 5.7 5.9 nan nan nan nan nan nan nan nan nan nan nan nan
13.3 11.7 11.4 11.9 13.1 11.8 11.4 10.3 9.3 9.3 8.2 7.7 7.4 7.4 7.5 7.8 7.8 7.4 8.1 7.8 7.2 7.3 7.5 7.0 6.8 6.4 5.8 4.4 3.6 4.1 6.1 7.5 nan nan 5.0 2.8 2.8 2.9 2.7 2.7 2.6 3.1 3.1
9.8 8.8 7.5 8.8 7.0 6.9 6.9 5.9 5.5 5.7 5.9 6.3 6.7 6.9 7.4 7.3 7.9 8.2 7.2 nan nan nan nan nan 6.5 6.4 nan nan nan nan nan nan nan 3.3 3.2 3.2 2.9 2.9 2.9 3.6 3.8 3.6 3.1